Location: Mauries
(43.6188°N, 0.3322°W)
Time: 20:17:44
(UTC+00:00)

Cosmos 381 Rocket - Pass Details

Date: 14 January 2026
Orbit: 956 x 994 km, 74.0° (Epoch: 11 February)

Event Time Altitude Azimuth Distance (km) Brightness Sun altitude
Exits shadow 05:02:01 57° 230° (SW) 1,156 4.6 -26.7°
Maximum altitude 05:03:17 73° 292° (WNW) 1,038 4.4 -26.4°
Drops below altitude 10° 05:09:43 10° 17° (NNE) 2,762 7.0 -25.3°
Sets 05:12:17 0° 20° (NNE) 3,712 7.7 -24.8°
